sat.trackr.live / text

‹ back to catalog

STARLINK-34786

NORAD 65391 · 2025-191N

PAYLOAD ACTIVE UNKNOWN

§ Identity

Operator
Country
US
Launch date
2025-08-30
Launch site
AFWTR
Launch vehicle
Mass (kg)
RCS (m²)

Purposes: comms

External: N2YO · Heavens-Above · Gunter

§ Orbital elements

Epoch: 2026-09-20T13:00:10.110816Z

Period
93.91 min
Inclination
97.2850°
Eccentricity
0.0001802
Mean motion
15.33436592 rev/d
Perigee alt
464.3 km
Apogee alt
466.8 km
Semi-major
6,843.7 km
B*
3.5902e-4
RAAN
129.5493°
Arg perigee
91.3090°
Mean anomaly
268.8359°
Rev number
5,964

§ Raw data

STARLINK-347861 65391U 25191N   26263.54178369  .00011530  00000+0  35902-3 0  99952 65391  97.2850 129.5493 0001802  91.3090 268.8359 15.33436592 59649

JSON: /api/v1/satellites/65391 · /tle

For live sub-satellite position, see the globe view (requires WebGL).

§ Visibility from observer

Set your observer location to see the next 7 days of passes ≥ 10°. The values pass through the URL so the page stays shareable.

No JS? Fill the form by hand. The geolocation button needs JavaScript.